When you browse on this site, cookies collect data to enhance your experience and personalize the content and advertising you see.
Visit our Privacy Policy to learn more. By continuing to use the site, you agree to this use of cookies and data.
  • In Hungary
  • List of Countries
  • For 7 days
  • Water Temperature
  • Satellite Maps
  • Weather Map
  • News
  • Weather Widgets
  • user-avatar
    Login

    Hourly Weather Ibb

    Today, 18 January, Friday

    Time Temperature Precipitation Wind Pressure Humidity
    00:00 +15°C° 0 mm 0 mps 596 mmHg 67%
    01:00 +14°C° 0 mm 0 mps 596 mmHg 69%
    02:00 +14°C° 0 mm 0 mps 595 mmHg 70%
    03:00 +13°C° 0 mm 0 mps 595 mmHg 72%
    04:00 +13°C° 0 mm 0 mps 595 mmHg 71%
    05:00 +12°C° 0 mm 0 mps 594 mmHg 71%
    06:00 +12°C° 0 mm 0 mps 594 mmHg 70%
    07:00 +14°C° 0 mm 0 mps 595 mmHg 60%
    08:00 +16°C° 0 mm 1 mps 597 mmHg 50%
    09:00 +20°C° 0 mm 1 mps 598 mmHg 38%
    10:00 +21°C° 0 mm 1 mps 598 mmHg 35%
    11:00 +21°C° 0 mm 2 mps 598 mmHg 32%
    12:00 +23°C° 0 mm 2 mps 599 mmHg 29%
    13:00 +22°C° 0 mm 3 mps 598 mmHg 31%
    14:00 +22°C° 0 mm 3 mps 598 mmHg 34%
    15:00 +22°C° 0 mm 3 mps 598 mmHg 36%
    16:00 +21°C° 0 mm 3 mps 597 mmHg 45%
    17:00 +20°C° 0 mm 3 mps 597 mmHg 54%
    18:00 +18°C° 0 mm 2 mps 596 mmHg 63%
    19:00 +18°C° 0 mm 2 mps 596 mmHg 69%
    20:00 +18°C° 0 mm 1 mps 596 mmHg 75%
    21:00 +18°C° 0 mm 1 mps 596 mmHg 81%
    22:00 +16°C° 0 mm 1 mps 596 mmHg 83%
    23:00 +16°C° 0 mm 1 mps 596 mmHg 85%

    Tomorrow, 19 January, Saturday

    Time Temperature Precipitation Wind Pressure Humidity
    00:00 +16°C° 0 mm 1 mps 596 mmHg 87%
    01:00 +16°C° 0.1 mm 1 mps 596 mmHg 88%
    02:00 +15°C° 0.1 mm 1 mps 596 mmHg 89%
    03:00 +15°C° 0.1 mm 1 mps 595 mmHg 90%
    04:00 +15°C° 0.1 mm 1 mps 595 mmHg 90%
    05:00 +15°C° 0.1 mm 1 mps 595 mmHg 91%
    06:00 +14°C° 0.1 mm 0 mps 595 mmHg 91%
    07:00 +14°C° 0 mm 0 mps 596 mmHg 84%
    08:00 +15°C° 0 mm 0 mps 597 mmHg 77%
    09:00 +18°C° 0 mm 1 mps 597 mmHg 69%
    10:00 +19°C° 0 mm 1 mps 598 mmHg 60%
    11:00 +19°C° 0 mm 2 mps 598 mmHg 50%
    12:00 +21°C° 0 mm 3 mps 598 mmHg 41%
    13:00 +21°C° 0 mm 3 mps 598 mmHg 42%
    14:00 +21°C° 0 mm 3 mps 597 mmHg 44%
    15:00 +21°C° 0 mm 4 mps 597 mmHg 45%
    16:00 +20°C° 0 mm 3 mps 597 mmHg 51%
    17:00 +19°C° 0 mm 3 mps 596 mmHg 57%
    18:00 +18°C° 0 mm 2 mps 596 mmHg 64%
    19:00 +17°C° 0 mm 2 mps 596 mmHg 69%
    20:00 +18°C° 0 mm 1 mps 597 mmHg 74%
    21:00 +16°C° 0 mm 1 mps 597 mmHg 79%
    22:00 +16°C° 0 mm 1 mps 597 mmHg 82%
    23:00 +16°C° 0 mm 1 mps 597 mmHg 84%

    Day after tomorrow, 20 January, Sunday

    Time Temperature Precipitation Wind Pressure Humidity
    00:00 +14°C° 0 mm 0 mps 596 mmHg 86%
    01:00 +14°C° 0 mm 0 mps 596 mmHg 87%
    02:00 +14°C° 0 mm 0 mps 596 mmHg 88%
    03:00 +14°C° 0 mm 0 mps 595 mmHg 90%
    04:00 +13°C° 0 mm 0 mps 596 mmHg 90%
    05:00 +13°C° 0 mm 0 mps 596 mmHg 91%
    06:00 +13°C° 0 mm 0 mps 596 mmHg 92%
    07:00 +15°C° 0 mm 1 mps 597 mmHg 87%
    08:00 +15°C° 0 mm 1 mps 597 mmHg 83%
    09:00 +16°C° 0 mm 1 mps 598 mmHg 78%
    10:00 +17°C° 0.1 mm 2 mps 598 mmHg 75%
    11:00 +17°C° 0.1 mm 2 mps 598 mmHg 72%
    12:00 +18°C° 0.1 mm 2 mps 598 mmHg 69%
    13:00 +17°C° 0.2 mm 2 mps 597 mmHg 71%
    14:00 +17°C° 0.2 mm 2 mps 596 mmHg 72%
    15:00 +17°C° 0.2 mm 3 mps 596 mmHg 74%
    16:00 +17°C° 0.2 mm 2 mps 596 mmHg 76%
    17:00 +16°C° 0.2 mm 2 mps 596 mmHg 79%
    18:00 +16°C° 0.2 mm 2 mps 596 mmHg 81%
    19:00 +16°C° 0.1 mm 2 mps 596 mmHg 82%
    20:00 +15°C° 0.1 mm 1 mps 597 mmHg 84%
    21:00 +15°C° 0.1 mm 1 mps 597 mmHg 85%
    22:00 +15°C° 0 mm 1 mps 597 mmHg 85%
    23:00 +15°C° 0 mm 1 mps 597 mmHg 86%

    21 January, Monday

    Time Temperature Precipitation Wind Pressure Humidity
    00:00 +15°C° 0 mm 1 mps 597 mmHg 86%
    01:00 +15°C° 0 mm 1 mps 596 mmHg 87%
    02:00 +14°C° 0 mm 1 mps 596 mmHg 88%
    03:00 +13°C° 0 mm 0 mps 595 mmHg 89%
    04:00 +12°C° 0 mm 0 mps 595 mmHg 89%
    05:00 +13°C° 0 mm 1 mps 595 mmHg 88%
    06:00 +13°C° 0 mm 1 mps 596 mmHg 88%
    07:00 +14°C° 0 mm 1 mps 596 mmHg 80%
    08:00 +15°C° 0 mm 1 mps 597 mmHg 73%
    09:00 +16°C° 0 mm 2 mps 598 mmHg 65%
    10:00 +18°C° 0 mm 2 mps 598 mmHg 60%
    11:00 +19°C° 0 mm 2 mps 598 mmHg 55%
    12:00 +20°C° 0 mm 2 mps 598 mmHg 50%
    13:00 +20°C° 0 mm 3 mps 598 mmHg 52%
    14:00 +19°C° 0 mm 3 mps 597 mmHg 54%
    15:00 +19°C° 0 mm 3 mps 596 mmHg 56%
    16:00 +18°C° 0 mm 2 mps 596 mmHg 61%
    17:00 +18°C° 0 mm 2 mps 596 mmHg 67%
    18:00 +17°C° 0 mm 2 mps 596 mmHg 72%
    19:00 +18°C° 0 mm 1 mps 596 mmHg 75%
    20:00 +16°C° 0 mm 1 mps 597 mmHg 78%
    21:00 +16°C° 0 mm 1 mps 597 mmHg 81%
    22:00 +16°C° 0 mm 1 mps 597 mmHg 82%
    23:00 +16°C° 0 mm 1 mps 596 mmHg 83%

    22 January, Tuesday

    Time Temperature Precipitation Wind Pressure Humidity
    00:00 +15°C° 0 mm 1 mps 596 mmHg 84%
    01:00 +15°C° 0 mm 1 mps 596 mmHg 85%
    02:00 +14°C° 0 mm 0 mps 595 mmHg 86%
    03:00 +13°C° 0 mm 0 mps 595 mmHg 87%
    04:00 +13°C° 0 mm 0 mps 595 mmHg 89%
    05:00 +13°C° 0 mm 0 mps 595 mmHg 90%
    06:00 +12°C° 0 mm 0 mps 595 mmHg 91%
    07:00 +15°C° 0 mm 1 mps 596 mmHg 83%
    08:00 +16°C° 0 mm 1 mps 597 mmHg 74%
    09:00 +17°C° 0 mm 2 mps 597 mmHg 66%
    10:00 +18°C° 0 mm 2 mps 597 mmHg 60%
    11:00 +20°C° 0 mm 2 mps 597 mmHg 55%
    12:00 +21°C° 0 mm 2 mps 597 mmHg 49%
    13:00 +21°C° 0 mm 3 mps 597 mmHg 48%
    14:00 +21°C° 0 mm 3 mps 597 mmHg 47%
    15:00 +22°C° 0 mm 3 mps 596 mmHg 47%
    16:00 +21°C° 0 mm 3 mps 596 mmHg 52%
    17:00 +20°C° 0 mm 3 mps 596 mmHg 57%
    18:00 +19°C° 0 mm 2 mps 596 mmHg 63%
    19:00 +18°C° 0 mm 2 mps 596 mmHg 67%
    20:00 +18°C° 0 mm 1 mps 596 mmHg 72%
    21:00 +18°C° 0 mm 1 mps 596 mmHg 76%
    22:00 +16°C° 0 mm 1 mps 596 mmHg 78%
    23:00 +15°C° 0 mm 0 mps 595 mmHg 80%

    23 January, Wednesday

    Time Temperature Precipitation Wind Pressure Humidity
    00:00 +15°C° 0 mm 0 mps 595 mmHg 82%
    01:00 +14°C° 0 mm 0 mps 595 mmHg 84%
    02:00 +14°C° 0 mm 0 mps 594 mmHg 85%
    03:00 +14°C° 0 mm 0 mps 594 mmHg 87%
    04:00 +13°C° 0 mm 0 mps 594 mmHg 88%
    05:00 +13°C° 0 mm 0 mps 594 mmHg 89%
    06:00 +13°C° 0 mm 0 mps 594 mmHg 90%
    07:00 +14°C° 0 mm 0 mps 595 mmHg 82%
    08:00 +16°C° 0 mm 1 mps 596 mmHg 73%
    09:00 +18°C° 0 mm 1 mps 597 mmHg 64%
    10:00 +20°C° 0 mm 1 mps 597 mmHg 58%
    11:00 +20°C° 0 mm 2 mps 597 mmHg 52%
    12:00 +21°C° 0 mm 2 mps 598 mmHg 46%
    13:00 +21°C° 0 mm 3 mps 597 mmHg 46%
    14:00 +22°C° 0 mm 3 mps 597 mmHg 46%
    15:00 +22°C° 0 mm 3 mps 596 mmHg 45%
    16:00 +21°C° 0 mm 3 mps 596 mmHg 50%
    17:00 +20°C° 0 mm 2 mps 596 mmHg 54%
    18:00 +19°C° 0 mm 2 mps 596 mmHg 59%
    19:00 +18°C° 0 mm 2 mps 596 mmHg 65%
    20:00 +18°C° 0 mm 1 mps 596 mmHg 70%
    21:00 +18°C° 0 mm 1 mps 596 mmHg 76%
    22:00 +16°C° 0 mm 1 mps 596 mmHg 78%
    23:00 +15°C° 0 mm 0 mps 595 mmHg 79%
    Show more